• In Czech Republic
  • List of Countries
  • For 7 days
  • Water Temperature
  • Satellite Maps
  • Weather Map
  • Weather Widgets
  • user-avatar
    Login

    Hourly Weather San Miguel de Tucumán

    Today, 17 August, Friday

    Time Temperature Precipitation Wind Pressure Humidity
    00:00 +18°C° 0 mm 2 mps 723 mmHg 43%
    01:00 +18°C° 0 mm 2 mps 722 mmHg 44%
    02:00 +18°C° 0 mm 2 mps 722 mmHg 44%
    03:00 +17°C° 0 mm 2 mps 722 mmHg 45%
    04:00 +17°C° 0 mm 2 mps 721 mmHg 46%
    05:00 +17°C° 0 mm 2 mps 721 mmHg 47%
    06:00 +17°C° 0 mm 2 mps 721 mmHg 45%
    07:00 +19°C° 0 mm 1 mps 722 mmHg 44%
    08:00 +20°C° 0 mm 1 mps 722 mmHg 42%
    09:00 +21°C° 0 mm 2 mps 722 mmHg 37%
    10:00 +25°C° 0 mm 2 mps 722 mmHg 32%
    11:00 +28°C° 0 mm 3 mps 722 mmHg 27%
    12:00 +29°C° 0 mm 3 mps 722 mmHg 25%
    13:00 +30°C° 0 mm 3 mps 721 mmHg 24%
    14:00 +33°C° 0 mm 3 mps 720 mmHg 22%
    15:00 +31°C° 0 mm 3 mps 720 mmHg 25%
    16:00 +30°C° 0 mm 3 mps 719 mmHg 27%
    17:00 +30°C° 0 mm 3 mps 719 mmHg 29%
    18:00 +28°C° 0 mm 3 mps 719 mmHg 34%
    19:00 +26°C° 0 mm 3 mps 719 mmHg 40%
    20:00 +24°C° 0 mm 3 mps 719 mmHg 45%
    21:00 +24°C° 0 mm 3 mps 719 mmHg 46%
    22:00 +22°C° 0 mm 3 mps 719 mmHg 48%
    23:00 +22°C° 0 mm 3 mps 719 mmHg 49%

    Tomorrow, 18 August, Saturday

    Time Temperature Precipitation Wind Pressure Humidity
    00:00 +23°C° 0 mm 2 mps 718 mmHg 48%
    01:00 +21°C° 0 mm 2 mps 718 mmHg 48%
    02:00 +21°C° 0 mm 2 mps 717 mmHg 47%
    03:00 +21°C° 0 mm 2 mps 717 mmHg 47%
    04:00 +20°C° 0 mm 2 mps 717 mmHg 48%
    05:00 +20°C° 0 mm 2 mps 716 mmHg 48%
    06:00 +20°C° 0 mm 2 mps 716 mmHg 48%
    07:00 +21°C° 0 mm 2 mps 717 mmHg 47%
    08:00 +23°C° 0 mm 2 mps 717 mmHg 46%
    09:00 +25°C° 0 mm 2 mps 717 mmHg 41%
    10:00 +28°C° 0 mm 2 mps 718 mmHg 37%
    11:00 +31°C° 0 mm 2 mps 718 mmHg 32%
    12:00 +32°C° 0 mm 2 mps 718 mmHg 31%
    13:00 +34°C° 0 mm 2 mps 717 mmHg 30%
    14:00 +34°C° 0 mm 2 mps 717 mmHg 29%
    15:00 +33°C° 0 mm 3 mps 717 mmHg 31%
    16:00 +31°C° 0 mm 3 mps 717 mmHg 34%
    17:00 +30°C° 0 mm 3 mps 718 mmHg 36%
    18:00 +29°C° 0 mm 3 mps 719 mmHg 39%
    19:00 +27°C° 0 mm 4 mps 720 mmHg 41%
    20:00 +25°C° 0 mm 4 mps 721 mmHg 44%
    21:00 +23°C° 0 mm 4 mps 722 mmHg 49%
    22:00 +21°C° 0 mm 4 mps 723 mmHg 54%
    23:00 +19°C° 0 mm 5 mps 724 mmHg 58%

    Day after tomorrow, 19 August, Sunday

    Time Temperature Precipitation Wind Pressure Humidity
    00:00 +18°C° 0 mm 4 mps 725 mmHg 60%
    01:00 +17°C° 0 mm 4 mps 725 mmHg 61%
    02:00 +16°C° 0 mm 3 mps 725 mmHg 63%
    03:00 +16°C° 0 mm 3 mps 725 mmHg 60%
    04:00 +14°C° 0 mm 3 mps 726 mmHg 57%
    05:00 +13°C° 0 mm 3 mps 726 mmHg 55%
    06:00 +13°C° 0 mm 3 mps 727 mmHg 52%
    07:00 +12°C° 0 mm 3 mps 728 mmHg 50%
    08:00 +12°C° 0 mm 4 mps 729 mmHg 47%
    09:00 +13°C° 0 mm 4 mps 730 mmHg 43%
    10:00 +14°C° 0 mm 4 mps 730 mmHg 38%
    11:00 +15°C° 0 mm 4 mps 731 mmHg 33%
    12:00 +15°C° 0 mm 4 mps 730 mmHg 32%
    13:00 +17°C° 0 mm 4 mps 730 mmHg 30%
    14:00 +17°C° 0 mm 4 mps 729 mmHg 28%
    15:00 +17°C° 0 mm 3 mps 729 mmHg 29%
    16:00 +16°C° 0 mm 3 mps 729 mmHg 30%
    17:00 +16°C° 0 mm 3 mps 729 mmHg 30%
    18:00 +15°C° 0 mm 2 mps 730 mmHg 33%
    19:00 +13°C° 0 mm 2 mps 731 mmHg 37%
    20:00 +12°C° 0 mm 1 mps 732 mmHg 40%
    21:00 +11°C° 0 mm 1 mps 732 mmHg 41%
    22:00 +11°C° 0 mm 1 mps 732 mmHg 42%
    23:00 +10°C° 0 mm 1 mps 733 mmHg 43%

    20 August, Monday

    Time Temperature Precipitation Wind Pressure Humidity
    00:00 +9°C° 0 mm 1 mps 732 mmHg 45%
    01:00 +9°C° 0 mm 1 mps 731 mmHg 46%
    02:00 +8°C° 0 mm 1 mps 731 mmHg 48%
    03:00 +8°C° 0 mm 1 mps 731 mmHg 50%
    04:00 +7°C° 0 mm 1 mps 731 mmHg 52%
    05:00 +7°C° 0 mm 1 mps 731 mmHg 54%
    06:00 +7°C° 0 mm 1 mps 731 mmHg 53%
    07:00 +8°C° 0 mm 1 mps 731 mmHg 53%
    08:00 +8°C° 0 mm 1 mps 731 mmHg 52%
    09:00 +10°C° 0 mm 1 mps 730 mmHg 47%
    10:00 +12°C° 0 mm 2 mps 730 mmHg 42%
    11:00 +14°C° 0 mm 2 mps 730 mmHg 37%
    12:00 +15°C° 0 mm 2 mps 729 mmHg 35%
    13:00 +16°C° 0 mm 2 mps 727 mmHg 34%
    14:00 +17°C° 0 mm 2 mps 726 mmHg 32%
    15:00 +16°C° 0 mm 2 mps 726 mmHg 33%
    16:00 +16°C° 0 mm 2 mps 726 mmHg 34%
    17:00 +15°C° 0 mm 2 mps 725 mmHg 36%
    18:00 +13°C° 0 mm 2 mps 725 mmHg 40%
    19:00 +12°C° 0 mm 1 mps 726 mmHg 45%
    20:00 +10°C° 0 mm 1 mps 726 mmHg 49%
    21:00 +10°C° 0 mm 1 mps 726 mmHg 51%
    22:00 +9°C° 0 mm 1 mps 726 mmHg 52%
    23:00 +9°C° 0 mm 1 mps 726 mmHg 54%

    21 August, Tuesday

    Time Temperature Precipitation Wind Pressure Humidity
    00:00 +8°C° 0 mm 1 mps 726 mmHg 55%
    01:00 +8°C° 0 mm 1 mps 725 mmHg 56%
    02:00 +8°C° 0 mm 1 mps 725 mmHg 57%
    03:00 +7°C° 0 mm 1 mps 725 mmHg 59%
    04:00 +7°C° 0 mm 1 mps 725 mmHg 60%
    05:00 +6°C° 0 mm 1 mps 724 mmHg 61%
    06:00 +7°C° 0 mm 1 mps 725 mmHg 59%
    07:00 +8°C° 0 mm 1 mps 725 mmHg 56%
    08:00 +9°C° 0 mm 1 mps 725 mmHg 53%
    09:00 +11°C° 0 mm 1 mps 725 mmHg 47%
    10:00 +14°C° 0 mm 2 mps 725 mmHg 41%
    11:00 +16°C° 0 mm 2 mps 725 mmHg 34%
    12:00 +18°C° 0 mm 2 mps 725 mmHg 32%
    13:00 +19°C° 0 mm 2 mps 724 mmHg 30%
    14:00 +21°C° 0 mm 2 mps 723 mmHg 28%
    15:00 +20°C° 0 mm 2 mps 723 mmHg 29%
    16:00 +20°C° 0 mm 2 mps 723 mmHg 31%
    17:00 +19°C° 0 mm 2 mps 723 mmHg 32%
    18:00 +17°C° 0 mm 2 mps 723 mmHg 38%
    19:00 +15°C° 0 mm 1 mps 723 mmHg 43%
    20:00 +13°C° 0 mm 1 mps 724 mmHg 49%
    21:00 +13°C° 0 mm 1 mps 724 mmHg 50%
    22:00 +13°C° 0 mm 1 mps 724 mmHg 51%
    23:00 +12°C° 0 mm 1 mps 724 mmHg 52%

    22 August, Wednesday

    Time Temperature Precipitation Wind Pressure Humidity
    00:00 +12°C° 0 mm 1 mps 723 mmHg 53%
    01:00 +12°C° 0 mm 1 mps 723 mmHg 55%
    02:00 +11°C° 0 mm 1 mps 722 mmHg 56%
    03:00 +11°C° 0 mm 1 mps 722 mmHg 57%
    04:00 +11°C° 0 mm 1 mps 722 mmHg 59%
    05:00 +11°C° 0 mm 1 mps 721 mmHg 60%
    06:00 +11°C° 0 mm 1 mps 722 mmHg 58%
    07:00 +12°C° 0 mm 1 mps 722 mmHg 56%
    08:00 +13°C° 0 mm 1 mps 722 mmHg 54%
    09:00 +16°C° 0 mm 2 mps 722 mmHg 47%
    10:00 +18°C° 0 mm 2 mps 722 mmHg 40%
    11:00 +21°C° 0 mm 3 mps 722 mmHg 34%
    12:00 +22°C° 0 mm 3 mps 721 mmHg 31%
    13:00 +25°C° 0 mm 3 mps 720 mmHg 29%
    14:00 +26°C° 0 mm 3 mps 719 mmHg 27%
    15:00 +25°C° 0 mm 4 mps 718 mmHg 28%
    16:00 +25°C° 0 mm 4 mps 717 mmHg 30%
    17:00 +23°C° 0 mm 4 mps 717 mmHg 31%
    18:00 +22°C° 0 mm 4 mps 717 mmHg 36%
    19:00 +20°C° 0 mm 3 mps 717 mmHg 41%
    20:00 +18°C° 0 mm 3 mps 717 mmHg 45%
    21:00 +18°C° 0 mm 3 mps 716 mmHg 47%
    22:00 +17°C° 0 mm 3 mps 716 mmHg 48%
    23:00 +17°C° 0 mm 2 mps 716 mmHg 49%
    Show more